Tracking 30261 objects as of 18-Feb-2025
HD Live streaming from Space Station
objects crossing your sky now

ONEWEB-0512

Track ONEWEB-0512 now!
10-day predictions
ONEWEB-0512 is classified as:


NORAD ID: 54130
Int'l Code: 2022-138T
Perigee: 1,191.4 km
Apogee: 1,194.5 km
Inclination: 87.9 °
Period: 109.1 minutes
Semi major axis: 7563 km
RCS: Unknown
Launch date: October 22, 2022
Source: United Kingdom (UK)
Launch site: SRIHARIKOTA (SRI)
Your satellite tracking list
Your tracking list is empty




NASA's NSSDC Master Catalog

Two Line Element Set (TLE):
1 54130U 22138T   25048.91484355  .00000118  00000-0  26340-3 0  9995
2 54130  87.9167  41.2442 0002042 101.0366 259.0996 13.19725918112937
Source of the keplerian elements: AFSPC